sat.trackr.live / text

‹ back to catalog

STARLINK-5711

NORAD 55471 · 2023-015Y

PAYLOAD ACTIVE UNKNOWN

§ Identity

Operator
Country
US
Launch date
2023-02-02
Launch site
AFETR
Launch vehicle
Mass (kg)
RCS (m²)

Purposes: comms

External: N2YO · Heavens-Above · Gunter

§ Orbital elements

Epoch: 2026-09-20T14:23:26.800800Z

Period
94.27 min
Inclination
43.0037°
Eccentricity
0.0001643
Mean motion
15.27574393 rev/d
Perigee alt
481.9 km
Apogee alt
484.2 km
Semi-major
6,861.2 km
B*
2.1948e-5
RAAN
307.7436°
Arg perigee
267.8578°
Mean anomaly
92.2085°
Rev number
20,053

§ Raw data

STARLINK-57111 55471U 23015Y   26263.59961575  .00000342  00000+0  21948-4 0  99952 55471  43.0037 307.7436 0001643 267.8578  92.2085 15.27574393200530

JSON: /api/v1/satellites/55471 · /tle

For live sub-satellite position, see the globe view (requires WebGL).

§ Visibility from observer

Set your observer location to see the next 7 days of passes ≥ 10°. The values pass through the URL so the page stays shareable.

No JS? Fill the form by hand. The geolocation button needs JavaScript.